QPF
0.00 0.00 0.00 0.00 0.00 0.00 0.00 0.00 0.00 0.00 0.00 0.00 0.00 0.00 0.00 0.00 0.00 0.00 0.00 0.00 0.00 0.00 0.00 0.00 0.00 0.00 0.00 0.00 0.00 0.01 0.01 0.00 0.02 0.02 0.00 0.00 0.00 0.01 0.02 0.02 0.04 0.06 0.04
0.00 0.00 0.00 0.00 0.00 0.00 0.00 0.00 0.00 0.00 0.00 0.00 0.00 0.00 0.00 0.00 0.00 0.00 0.00 0.00 0.00 0.00 0.00 0.00 0.01 0.00 0.00 0.01 0.01 0.02 0.00 0.00 0.02 0.06 0.00 0.00 0.01 0.03 0.01 0.04 0.04 0.10 0.11
0.00 0.00 0.00 0.00 0.00 0.00 0.00 0.00 0.00 0.00 0.00 0.00 0.00 0.00 0.00 0.00 0.00 0.00 0.00 0.00 0.00 0.00 0.01 0.02 0.03 0.01 0.01 0.01 0.01 0.01 0.02 0.01 0.02 0.04 0.01 0.00 0.01 0.01 0.00 0.03 0.04 0.03 0.04
0.00 0.00 0.00 0.00 0.00 0.00 0.00 0.00 0.00 0.00 0.00 0.00 0.00 0.00 0.00 0.00 0.00 0.00 0.00 0.00 0.00 0.01 0.03 0.08 0.09 0.05 0.02 0.02 0.02 0.02 0.03 0.02 0.00 0.03 0.02 0.00 0.00 0.00 0.00 0.01 0.02 0.00 0.00
0.00 0.00 0.00 0.00 0.00 0.00 0.00 0.00 0.00 0.00 0.00 0.00 0.00 0.00 0.00 0.00 0.00 0.00 0.00 0.00 0.00 0.01 0.01 0.01 0.01 0.01 0.00 0.03 0.03 0.05 0.04 0.01 0.01 0.04 0.02 0.00 0.00 0.00 0.00 0.01 0.01 0.00 0.01
0.00 0.00 0.00 0.00 0.00 0.00 0.00 0.00 0.00 0.00 0.00 0.00 0.00 0.00 0.00 0.00 0.01 0.01 0.00 0.00 0.00 0.00 0.00 0.00 0.00 0.00 0.00 0.00 0.00 0.05 0.05 0.02 0.02 0.06 0.04 0.00 0.00 0.00 0.00 0.00 0.00 0.00 0.00
0.00 0.00 0.00 0.00 0.00 0.00 0.00 0.00 0.00 0.00 0.00 0.00 0.00 0.00 0.00 0.00 0.01 0.01 0.00 0.00 0.00 0.00 0.00 0.00 0.00 0.00 0.00 0.01 0.01 0.01 0.00 0.00 0.05 0.11 0.09 0.02 0.00 0.00 0.01 0.01 0.00 0.01 0.01
0.00 0.00 0.00 0.00 0.00 0.00 0.00 0.00 0.00 0.00 0.00 0.00 0.00 0.00 0.00 0.01 0.00 0.00 0.00 0.00 0.01 0.01 0.00 0.01 0.00 0.00 0.00 0.01 0.02 0.03 0.01 0.00 0.02 0.06 0.12 0.04 0.00 0.00 0.01 0.02 0.03 0.01 0.02
0.00 0.00 0.00 0.00 0.00 0.01 0.00 0.00 0.00 0.00 0.00 0.00 0.01 0.01 0.00 0.00 0.00 0.00 0.00 0.00 0.00 0.00 0.00 0.00 0.00 0.01 0.00 0.00 0.01 0.01 0.02 0.01 0.02 0.02 0.04 0.01 0.00 0.00 0.00 0.00 0.01 0.00 0.00
0.01 0.00 0.02 0.02 0.01 0.01 0.00 0.00 0.00 0.00 0.01 0.01 0.01 0.00 0.00 0.01 0.01 0.00 0.00 0.00 0.00 0.00 0.00 0.00 0.00 0.01 0.00 0.00 0.01 0.00 0.01 0.01 0.01 0.00 0.00 0.00 0.00 0.00 0.00 0.02 0.02 0.01 0.00
0.02 0.03 0.05 0.08 0.05 0.02 0.01 0.01 0.01 0.02 0.02 0.02 0.02 0.02 0.01 0.01 0.01 0.00 0.00 0.00 0.00 0.00 0.00 0.00 0.00 0.00 0.00 0.00 0.01 0.00 0.00 0.01 0.01 0.02 0.01 0.01 0.01 0.00 0.00 0.02 0.04 0.02 0.00
0.06 0.14 0.13 0.18 0.11 0.07 0.04 0.05 0.07 0.05 0.03 0.05 0.05 0.03 0.02 0.01 0.00 0.00 0.00 0.00 0.00 0.00 0.00 0.00 0.00 0.00 0.00 0.00 0.00 0.00 0.00 0.00 0.00 0.00 0.01 0.00 0.00 0.00 0.00 0.00 0.00 0.01 0.03
0.09 0.24 0.17 0.25 0.17 0.12 0.11 0.08 0.05 0.05 0.06 0.04 0.03 0.02 0.00 0.00 0.00 0.00 0.00 0.00 0.00 0.01 0.00 0.00 0.00 0.00 0.00 0.00 0.00 0.01 0.00 0.01 0.01 0.00 0.01 0.00 0.00 0.00 0.00 0.00 0.00 0.00 0.00
0.07 0.15 0.15 0.18 0.17 0.13 0.12 0.11 0.07 0.07 0.03 0.02 0.01 0.00 0.00 0.00 0.00 0.00 0.00 0.00 0.00 0.00 0.00 0.00 0.00 0.00 0.00 0.00 0.00 0.00 0.00 0.01 0.02 0.02 0.01 0.00 0.01 0.00 0.01 0.01 0.02 0.01 0.00
0.06 0.06 0.09 0.13 0.15 0.12 0.11 0.10 0.06 0.03 0.01 0.00 0.00 0.00 0.00 0.00 0.00 0.00 0.00 0.00 0.00 0.00 0.00 0.00 0.00 0.00 0.00 0.00 0.00 0.00 0.00 0.00 0.01 0.01 0.00 0.00 0.01 0.01 0.01 0.00 0.01 0.00 0.03
0.05 0.05 0.06 0.09 0.12 0.15 0.13 0.06 0.03 0.01 0.00 0.00 0.00 0.00 0.00 0.00 0.00 0.00 0.00 0.00 0.00 0.00 0.00 0.00 0.01 0.00 0.00 0.00 0.00 0.00 0.00 0.00 0.00 0.00 0.01 0.01 0.01 0.01 0.01 0.00 0.00 0.00 0.01
0.04 0.06 0.10 0.09 0.06 0.06 0.04 0.02 0.00 0.00 0.00 0.00 0.00 0.00 0.00 0.00 0.00 0.00 0.00 0.00 0.00 0.01 0.02 0.01 0.00 0.00 0.00 0.00 0.00 0.00 0.00 0.00 0.00 0.00 0.00 0.00 0.01 0.01 0.00 0.01 0.01 0.01 0.00
0.07 0.07 0.03 0.02 0.01 0.00 0.00 0.00 0.00 0.00 0.00 0.00 0.00 0.00 0.00 0.00 0.00 0.00 0.00 0.00 0.00 0.02 0.02 0.02 0.02 0.01 0.00 0.00 0.00 0.00 0.00 0.00 0.00 0.00 0.00 0.00 0.01 0.01 0.02 0.01 0.00 0.01 0.01
0.01 0.00 0.01 0.00 0.00 0.00 0.00 0.00 0.00 0.00 0.00 0.00 0.00 0.00 0.00 0.00 0.00 0.00 0.00 0.01 0.00 0.01 0.01 0.01 0.04 0.02 0.00 0.00 0.00 0.00 0.00 0.00 0.00 0.00 0.01 0.00 0.01 0.01 0.02 0.01 0.00 0.00 0.00
0.01 0.00 0.00 0.00 0.00 0.00 0.00 0.00 0.00 0.00 0.00 0.00 0.00 0.00 0.00 0.00 0.00 0.00 0.01 0.02 0.01 0.00 0.00 0.01 0.02 0.01 0.00 0.00 0.00 0.00 0.00 0.00 0.00 0.00 0.00 0.00 0.00 0.00 0.00 0.01 0.02 0.00 0.00
0.00 0.00 0.00 0.00 0.00 0.00 0.00 0.00 0.00 0.00 0.00 0.00 0.00 0.00 0.00 0.00 0.00 0.01 0.00 0.01 0.00 0.01 0.00 0.00 0.00 0.01 0.02 0.02 0.01 0.00 0.00 0.01 0.01 0.01 0.01 0.00 0.01 0.01 0.02 0.00 0.00 0.00 0.00
0.00 0.00 0.00 0.00 0.00 0.00 0.00 0.00 0.00 0.00 0.00 0.00 0.00 0.00 0.00 0.00 0.00 0.00 0.00 0.00 0.01 0.02 0.01 0.00 0.00 0.00 0.00 0.01 0.01 0.01 0.00 0.02 0.01 0.01 0.00 0.00 0.02 0.01 0.00 0.01 0.01 0.01 0.09
0.00 0.01 0.01 0.00 0.00 0.01 0.01 0.00 0.00 0.00 0.00 0.00 0.00 0.00 0.00 0.00 0.00 0.00 0.00 0.00 0.00 0.00 0.00 0.00 0.00 0.00 0.00 0.00 0.00 0.00 0.03 0.05 0.06 0.05 0.06 0.08 0.06 0.08 0.11 0.15 0.13 0.10 0.08
0.00 0.00 0.00 0.00 0.00 0.01 0.01 0.00 0.00 0.00 0.00 0.00 0.00 0.00 0.00 0.00 0.00 0.00 0.00 0.00 0.00 0.00 0.00 0.00 0.00 0.00 0.00 0.00 0.00 0.00 0.00 0.00 0.00 0.00 0.01 0.04 0.02 0.01 0.01 0.01 0.00 0.00 0.00
0.00 0.00 0.00 0.00 0.00 0.01 0.00 0.00 0.00 0.00 0.00 0.00 0.00 0.00 0.00 0.00 0.00 0.00 0.00 0.00 0.00 0.00 0.00 0.00 0.00 0.00 0.00 0.00 0.00 0.00 0.00 0.00 0.00 0.00 0.00 0.00 0.00 0.00 0.01 0.01 0.00 0.00 0.00
0.00 0.00 0.00 0.00 0.00 0.00 0.00 0.00 0.00 0.00 0.00 0.00 0.00 0.00 0.00 0.00 0.00 0.00 0.00 0.00 0.00 0.00 0.00 0.00 0.00 0.00 0.00 0.00 0.00 0.00 0.00 0.00 0.00 0.00 0.00 0.00 0.00 0.00 0.00 0.00 0.00 0.00 0.00
MSLP
1002.21 1002.09 1001.81 1001.31 1001.04 1000.83 1000.52 1000.28 1000.42 1000.41 1000.32 1000.47 1000.43 1000.85 1001.32 1001.79 1002.43 1003.09 1003.23 1003.48 1003.94 1004.40 1005.03 1005.66 1006.18 1006.41 1006.82 1007.21 1007.17 1007.02 1007.47 1007.17 1007.18 1008.26 1009.12 1009.91 1010.07 1010.23 1010.24 1010.18 1010.30 1010.04 1010.64
1001.49 1001.31 1001.12 1000.86 1000.42 1000.13 999.80 999.59 999.55 999.26 999.64 999.95 999.80 999.98 1000.37 1001.03 1001.79 1002.26 1002.48 1002.61 1003.35 1003.95 1004.65 1005.21 1005.64 1006.32 1006.53 1006.64 1006.79 1007.28 1007.09 1007.18 1007.37 1008.31 1009.26 1009.81 1010.06 1010.29 1010.55 1010.30 1010.34 1010.20 1010.38
1000.90 1000.77 1000.33 999.94 999.69 999.55 999.23 998.98 998.97 998.78 998.80 998.90 998.87 998.93 999.32 1000.08 1000.95 1001.63 1001.84 1002.32 1002.96 1003.65 1004.28 1004.86 1005.10 1005.64 1006.05 1006.36 1006.74 1006.74 1007.34 1007.71 1008.04 1008.15 1008.92 1009.81 1010.34 1010.30 1010.96 1010.74 1010.77 1010.93 1010.92
1000.39 1000.15 999.84 999.27 998.88 998.76 998.48 998.18 998.07 998.08 997.77 997.92 998.16 998.44 998.78 999.52 1000.33 1001.05 1001.44 1002.02 1002.79 1003.51 1003.93 1004.56 1004.96 1005.48 1005.70 1006.27 1006.51 1006.92 1007.33 1007.63 1007.80 1008.13 1008.78 1009.55 1010.25 1010.83 1010.94 1010.92 1011.09 1011.24 1011.52
999.73 999.42 999.10 998.61 998.14 997.74 997.54 997.24 997.08 997.11 996.99 997.09 997.54 997.87 998.40 999.08 999.66 1000.49 1001.21 1002.04 1002.57 1003.28 1004.19 1004.51 1004.84 1005.29 1005.60 1006.02 1006.32 1006.99 1007.31 1007.51 1007.49 1008.09 1008.86 1009.28 1010.17 1010.63 1010.83 1010.93 1010.89 1011.33 1011.76
998.98 998.55 998.33 997.85 997.23 996.85 996.49 996.54 996.48 996.40 996.40 996.56 997.04 997.44 998.11 998.47 999.91 1000.58 1001.32 1002.15 1002.78 1003.43 1003.92 1004.29 1004.63 1005.51 1005.91 1006.39 1006.83 1007.16 1007.29 1007.45 1007.77 1008.49 1008.57 1008.81 1009.82 1010.29 1010.63 1010.77 1011.03 1011.26 1011.53
998.17 997.74 997.25 996.80 996.08 995.97 995.44 995.61 995.62 995.77 995.99 996.18 996.73 997.31 998.24 998.97 1000.32 1001.07 1001.91 1002.33 1002.79 1003.29 1003.67 1004.09 1004.40 1004.90 1005.79 1006.17 1007.22 1007.56 1007.79 1008.06 1008.48 1008.43 1008.25 1008.49 1009.30 1009.90 1009.95 1010.58 1011.12 1010.80 1010.54
997.27 996.75 996.34 995.95 995.15 995.19 994.40 994.67 995.01 995.38 995.71 995.90 996.59 997.39 998.72 1000.05 1000.90 1001.67 1002.07 1002.39 1002.83 1003.23 1003.55 1003.99 1004.47 1004.99 1005.61 1005.96 1006.75 1007.20 1007.62 1008.38 1008.64 1008.30 1008.56 1008.61 1009.13 1009.67 1010.03 1010.32 1010.71 1010.96 1011.19
996.31 995.73 995.49 995.07 994.58 994.46 993.83 994.20 994.87 995.37 995.79 996.31 996.96 997.80 998.71 1000.57 1001.52 1001.77 1001.99 1002.44 1002.74 1003.20 1003.62 1004.05 1004.79 1005.10 1005.83 1006.37 1006.60 1007.08 1007.79 1008.38 1008.99 1008.89 1008.88 1008.96 1009.32 1009.66 1009.87 1010.39 1010.65 1010.77 1010.84
995.33 994.64 994.41 993.89 993.95 993.60 993.61 994.50 994.91 995.32 995.67 996.19 997.09 998.14 999.35 1000.66 1001.92 1001.92 1002.09 1001.74 1002.73 1003.17 1004.01 1004.65 1005.24 1005.15 1006.22 1006.67 1006.74 1007.33 1007.79 1008.16 1008.30 1009.10 1009.78 1010.13 1010.22 1010.61 1010.63 1010.66 1010.23 1010.00 1010.31
994.53 993.88 993.23 993.15 993.22 993.15 993.69 994.32 994.74 995.14 995.71 996.56 997.62 998.87 999.84 1000.83 1002.10 1002.40 1002.45 1002.00 1002.65 1003.18 1003.49 1004.27 1005.00 1006.19 1006.59 1007.08 1007.22 1007.49 1007.87 1008.16 1008.65 1008.70 1009.17 1009.59 1010.11 1010.53 1010.62 1010.40 1010.16 1009.67 1009.66
993.25 992.85 992.23 992.37 992.52 992.69 993.31 993.98 994.47 995.22 995.80 996.98 997.89 999.25 1000.28 1001.26 1002.34 1002.97 1002.91 1002.60 1002.90 1002.76 1003.43 1004.00 1005.68 1006.62 1007.10 1007.35 1007.61 1007.87 1008.22 1008.13 1008.58 1009.01 1009.26 1009.53 1009.80 1009.99 1010.31 1010.20 1010.18 1009.83 1009.82
991.65 991.46 991.55 991.66 991.88 992.50 993.11 993.87 994.85 995.57 995.84 997.05 998.04 998.98 1000.21 1001.24 1002.34 1003.43 1003.40 1003.35 1003.69 1003.48 1003.77 1005.33 1006.38 1007.02 1007.29 1007.69 1008.01 1008.11 1008.31 1007.91 1008.37 1008.79 1009.17 1009.14 1009.64 1009.73 1010.24 1010.28 1010.38 1010.31 1010.33
990.71 990.84 990.79 991.13 991.90 992.81 993.62 994.35 994.77 995.58 996.12 997.23 997.99 999.00 999.55 1000.81 1002.03 1002.74 1003.51 1003.91 1004.22 1004.72 1005.64 1006.27 1006.60 1006.71 1006.53 1007.59 1008.26 1008.27 1007.54 1007.61 1008.01 1008.35 1008.72 1009.30 1009.75 1010.01 1010.09 1010.03 1010.14 1010.19 1010.14
988.73 989.80 990.34 991.30 992.13 993.14 994.12 995.10 995.68 996.40 996.64 996.96 997.84 998.47 999.48 1000.69 1001.59 1002.04 1002.72 1003.18 1003.63 1004.52 1005.52 1006.16 1006.24 1006.24 1006.99 1007.32 1007.26 1007.51 1007.81 1007.69 1007.90 1008.32 1008.84 1009.30 1009.58 1009.80 1009.79 1010.00 1010.00 1010.27 1010.29
987.92 989.96 990.42 991.50 992.64 993.62 994.69 996.49 997.90 998.31 998.31 998.22 998.27 998.52 999.66 1001.03 1002.17 1003.06 1003.48 1003.84 1004.55 1005.26 1005.43 1005.66 1005.96 1005.92 1006.77 1007.05 1007.18 1007.63 1007.64 1007.82 1007.86 1007.99 1008.49 1008.99 1009.26 1009.31 1009.71 1010.16 1010.38 1010.38 1010.13
989.67 990.36 991.22 991.88 992.66 993.45 994.83 996.19 997.94 999.72 999.83 1000.24 1000.14 1000.20 1000.76 1002.07 1003.08 1003.69 1004.20 1004.77 1005.19 1005.30 1005.29 1005.87 1006.06 1006.36 1006.70 1006.84 1007.10 1007.36 1007.53 1007.96 1008.25 1008.29 1008.42 1008.40 1008.89 1009.41 1009.87 1010.09 1010.10 1010.25 1010.71
990.31 991.11 991.05 991.74 992.40 993.35 994.57 995.92 997.36 998.57 999.81 1000.87 1001.79 1001.86 1002.48 1003.15 1003.78 1004.29 1004.80 1005.23 1005.73 1005.64 1005.36 1005.78 1005.92 1006.30 1006.66 1006.89 1007.02 1007.34 1007.73 1008.04 1008.22 1008.59 1008.86 1009.13 1009.22 1009.41 1009.60 1009.86 1010.24 1010.19 1010.38
990.26 991.01 991.06 991.34 992.14 993.39 994.72 995.68 996.82 998.17 999.59 1000.96 1002.39 1003.21 1003.71 1003.99 1004.35 1004.80 1004.96 1004.98 1005.27 1005.30 1005.45 1005.67 1005.90 1006.17 1006.47 1006.78 1007.02 1007.35 1007.70 1008.23 1008.44 1008.57 1008.86 1009.16 1009.29 1009.40 1009.60 1010.04 1010.38 1010.64 1010.72
990.48 991.40 991.90 992.52 993.69 994.60 995.67 996.22 997.57 998.98 1000.01 1000.83 1001.94 1003.22 1003.94 1004.21 1004.87 1005.10 1004.97 1005.04 1005.44 1005.64 1005.78 1005.64 1005.59 1005.68 1006.27 1006.51 1006.83 1007.17 1007.65 1008.23 1008.30 1008.51 1008.71 1008.90 1009.12 1009.39 1009.62 1009.73 1009.71 1010.16 1010.44
991.22 992.04 992.62 993.31 994.36 994.88 995.95 996.97 998.26 999.20 1000.08 1000.97 1002.14 1003.06 1003.58 1003.97 1004.32 1004.84 1005.25 1005.22 1005.50 1005.69 1005.98 1005.74 1005.63 1005.95 1006.33 1006.67 1006.89 1007.50 1007.58 1007.71 1007.95 1008.11 1008.42 1008.94 1008.88 1009.21 1008.96 1009.52 1009.51 1010.00 1010.21
991.39 991.99 992.72 993.59 995.04 995.97 996.91 997.76 998.82 999.78 1000.60 1001.68 1002.87 1003.62 1004.04 1004.49 1005.04 1005.45 1005.82 1005.86 1005.61 1005.63 1006.03 1006.20 1006.54 1006.81 1006.67 1006.89 1007.19 1007.22 1007.40 1007.72 1007.88 1007.90 1008.63 1008.56 1008.87 1008.95 1008.96 1009.31 1009.24 1009.52 1009.56
991.60 992.40 993.44 994.83 996.03 997.16 997.78 998.59 999.41 1000.37 1001.39 1002.39 1003.16 1003.95 1004.71 1005.37 1005.89 1006.29 1006.59 1006.49 1006.29 1006.79 1007.20 1007.25 1007.53 1007.45 1007.65 1008.15 1008.37 1007.92 1007.72 1007.81 1007.74 1007.88 1008.16 1008.29 1008.66 1008.59 1008.77 1008.96 1009.05 1009.68 1009.64
993.17 994.01 995.01 996.08 996.90 997.75 998.44 999.19 1000.01 1000.99 1001.96 1003.03 1004.04 1004.84 1005.62 1006.26 1006.68 1007.11 1007.40 1007.74 1007.97 1008.39 1008.52 1008.39 1008.19 1008.22 1008.43 1008.53 1008.52 1008.34 1008.35 1008.72 1008.22 1008.30 1008.58 1008.85 1009.21 1009.43 1009.78 1010.12 1010.44 1010.77 1011.03
993.88 994.76 995.69 996.70 997.67 998.53 999.29 1000.00 1000.86 1001.80 1002.98 1004.04 1004.88 1005.67 1006.41 1006.94 1007.41 1007.82 1008.12 1008.63 1009.19 1009.53 1009.62 1009.53 1009.64 1009.71 1009.89 1009.91 1010.10 1010.23 1010.39 1009.87 1009.51 1009.47 1009.68 1010.05 1010.51 1010.76 1011.05 1011.37 1011.66 1011.86 1012.02
995.26 995.97 996.73 997.51 998.34 999.10 999.89 1000.78 1001.72 1002.83 1003.97 1004.91 1005.77 1006.55 1007.24 1007.76 1008.25 1008.67 1009.05 1009.47 1010.07 1010.74 1011.15 1011.39 1011.48 1011.43 1011.46 1011.63 1011.77 1011.49 1011.05 1010.84 1010.61 1010.44 1009.99 1010.29 1010.73 1011.03 1011.37 1011.54 1011.86 1012.08 1012.47
Thickness
5656 5665 5674 5686 5697 5706 5716 5727 5732 5739 5743 5747 5750 5749 5747 5745 5743 5737 5737 5736 5731 5727 5721 5713 5706 5704 5697 5692 5690 5689 5681 5682 5673 5665 5658 5651 5647 5643 5642 5639 5638 5639 5636
5644 5654 5664 5676 5687 5698 5709 5719 5727 5734 5738 5739 5745 5745 5744 5742 5739 5735 5733 5733 5726 5721 5714 5708 5702 5696 5692 5689 5686 5678 5678 5677 5671 5657 5650 5645 5642 5640 5637 5637 5636 5637 5636
5626 5638 5653 5667 5677 5687 5700 5711 5719 5726 5731 5737 5741 5742 5743 5741 5736 5732 5730 5726 5722 5716 5709 5702 5699 5693 5688 5684 5680 5677 5670 5666 5661 5657 5649 5642 5636 5636 5629 5631 5630 5627 5629
5605 5619 5637 5655 5668 5679 5693 5703 5712 5721 5727 5731 5736 5739 5740 5737 5732 5727 5725 5721 5714 5709 5705 5698 5693 5688 5684 5678 5673 5668 5663 5659 5657 5652 5645 5638 5632 5627 5626 5625 5625 5624 5623
5588 5602 5623 5643 5659 5675 5686 5700 5711 5717 5724 5730 5731 5735 5735 5731 5728 5724 5719 5712 5708 5702 5695 5692 5688 5684 5679 5674 5668 5660 5657 5654 5653 5645 5637 5635 5626 5624 5623 5624 5626 5624 5622
5581 5590 5607 5628 5650 5668 5683 5694 5703 5713 5720 5726 5727 5729 5727 5727 5719 5714 5711 5704 5698 5692 5687 5686 5683 5673 5668 5662 5656 5652 5651 5648 5644 5636 5636 5635 5627 5625 5624 5624 5623 5622 5621
5574 5585 5597 5617 5643 5662 5680 5689 5700 5708 5716 5721 5722 5724 5720 5718 5706 5702 5697 5696 5691 5686 5683 5679 5676 5672 5662 5658 5645 5642 5639 5636 5633 5635 5635 5635 5629 5627 5629 5624 5619 5623 5628
5568 5580 5592 5608 5637 5657 5677 5688 5696 5703 5710 5714 5716 5717 5710 5705 5694 5689 5689 5689 5684 5680 5677 5673 5668 5662 5657 5653 5644 5638 5634 5629 5627 5631 5632 5634 5632 5628 5626 5624 5621 5620 5620
5562 5577 5589 5606 5631 5652 5673 5684 5690 5696 5699 5703 5707 5706 5706 5692 5683 5682 5684 5680 5677 5673 5671 5667 5659 5655 5646 5640 5638 5632 5625 5622 5619 5622 5625 5627 5626 5625 5624 5621 5618 5617 5618
5560 5577 5590 5612 5631 5653 5669 5673 5682 5688 5693 5700 5699 5698 5691 5685 5672 5674 5677 5681 5670 5667 5661 5655 5646 5649 5634 5629 5631 5623 5619 5618 5621 5619 5618 5618 5619 5618 5617 5617 5621 5621 5620
5562 5579 5598 5616 5634 5653 5662 5669 5676 5682 5687 5689 5688 5683 5680 5675 5667 5664 5666 5675 5667 5662 5659 5652 5647 5630 5625 5621 5623 5621 5618 5618 5615 5617 5618 5618 5616 5615 5615 5618 5622 5626 5625
5571 5586 5607 5621 5638 5653 5661 5667 5673 5677 5681 5679 5677 5671 5669 5666 5659 5655 5657 5664 5661 5662 5655 5651 5635 5622 5618 5617 5617 5611 5611 5613 5615 5612 5613 5615 5615 5615 5614 5617 5618 5623 5624
5588 5603 5615 5631 5645 5653 5660 5665 5667 5672 5676 5671 5670 5666 5661 5660 5656 5645 5648 5651 5647 5653 5650 5634 5621 5616 5615 5613 5608 5605 5607 5619 5615 5613 5609 5614 5614 5615 5612 5614 5614 5616 5618
5602 5616 5629 5639 5645 5650 5656 5662 5668 5669 5671 5668 5667 5663 5663 5659 5653 5651 5647 5645 5641 5639 5627 5624 5621 5621 5623 5615 5610 5611 5620 5621 5618 5616 5615 5612 5610 5610 5611 5615 5615 5616 5617
5603 5626 5640 5641 5646 5648 5652 5656 5662 5664 5668 5668 5666 5665 5659 5655 5655 5653 5650 5648 5645 5636 5628 5624 5625 5625 5620 5618 5619 5618 5617 5620 5619 5617 5614 5611 5611 5611 5613 5614 5615 5613 5613
5630 5631 5642 5643 5642 5646 5648 5642 5633 5640 5646 5655 5660 5663 5658 5650 5641 5636 5636 5634 5629 5624 5627 5626 5624 5627 5620 5618 5618 5615 5617 5615 5618 5619 5617 5614 5613 5615 5612 5610 5610 5610 5612
5631 5636 5637 5639 5643 5645 5644 5644 5640 5633 5635 5637 5639 5643 5644 5638 5631 5629 5627 5624 5621 5623 5628 5622 5621 5620 5619 5619 5618 5617 5617 5615 5615 5616 5617 5620 5616 5613 5609 5609 5610 5609 5605
5632 5632 5643 5644 5648 5650 5647 5646 5644 5643 5639 5634 5623 5628 5626 5624 5623 5622 5620 5620 5621 5622 5626 5621 5621 5619 5618 5617 5619 5617 5615 5614 5614 5612 5611 5610 5612 5611 5610 5609 5607 5608 5606
5638 5638 5648 5654 5654 5651 5648 5647 5644 5642 5636 5627 5620 5615 5614 5615 5616 5615 5617 5624 5622 5623 5623 5622 5621 5619 5618 5617 5617 5616 5614 5613 5612 5611 5610 5609 5609 5609 5608 5604 5601 5598 5597
5641 5637 5644 5646 5644 5643 5640 5641 5636 5629 5626 5627 5625 5617 5613 5617 5617 5618 5622 5622 5618 5617 5617 5620 5623 5624 5619 5619 5618 5617 5614 5611 5612 5610 5609 5609 5608 5607 5605 5605 5607 5602 5599
5641 5641 5642 5644 5640 5642 5639 5635 5628 5626 5625 5625 5620 5618 5613 5621 5621 5618 5616 5619 5615 5614 5614 5618 5621 5620 5619 5618 5618 5613 5613 5614 5613 5612 5610 5607 5608 5605 5610 5605 5607 5601 5599
5647 5647 5646 5644 5638 5635 5631 5630 5625 5622 5621 5617 5610 5606 5605 5614 5612 5609 5609 5610 5615 5617 5615 5615 5614 5614 5617 5617 5615 5615 5614 5611 5611 5612 5606 5608 5606 5606 5606 5605 5607 5604 5605
5650 5648 5644 5637 5631 5624 5625 5624 5622 5617 5613 5611 5611 5609 5605 5602 5600 5599 5600 5604 5609 5607 5605 5607 5606 5609 5609 5605 5604 5608 5610 5610 5612 5612 5609 5609 5606 5607 5606 5605 5606 5600 5602
5640 5636 5631 5627 5626 5623 5622 5621 5619 5614 5612 5608 5603 5600 5597 5594 5593 5591 5593 5593 5594 5592 5593 5597 5601 5603 5602 5602 5602 5604 5604 5602 5606 5606 5606 5604 5601 5599 5596 5593 5590 5586 5583
5638 5634 5630 5625 5622 5619 5617 5616 5614 5611 5606 5599 5597 5594 5590 5588 5588 5587 5587 5585 5583 5583 5584 5588 5588 5588 5588 5589 5589 5589 5591 5595 5596 5597 5594 5590 5586 5584 5582 5578 5575 5572 5570
5630 5628 5625 5623 5619 5617 5615 5612 5609 5604 5597 5592 5589 5586 5584 5583 5581 5581 5581 5580 5577 5573 5572 5572 5573 5574 5575 5575 5575 5579 5583 5585 5585 5587 5588 5586 5583 5581 5577 5575 5571 5568 5563